date,time,SUV Intensity [MED/Hr],UV Index,Daily total [MED],Since Last [MED]
03/07/2022,00:09:56,-0.001,0.0,0.0,0.0
03/07/2022,00:10:57,0.000,0.0,0.0,0.0
03/07/2022,00:12:05,0.000,0.0,0.0,0.0
03/07/2022,00:13:58,-0.001,0.0,0.0,0.0
03/07/2022,00:14:57,-0.000,0.0,0.0,0.0
03/07/2022,00:15:57,0.001,0.0,0.0,0.0
03/07/2022,00:16:56,0.000,0.0,0.0,0.0
03/07/2022,00:17:57,-0.000,0.0,0.0,0.0
03/07/2022,00:18:57,0.000,0.0,0.0,0.0
03/07/2022,00:19:57,0.000,0.0,0.0,0.0
03/07/2022,00:20:56,0.001,0.0,0.0,0.0
03/07/2022,00:22:05,0.000,0.0,0.0,0.0
03/07/2022,00:22:57,0.000,0.0,0.0,0.0
03/07/2022,00:23:57,0.000,0.0,0.0,0.0
03/07/2022,00:24:57,0.000,0.0,0.0,0.0
03/07/2022,00:25:57,0.001,0.0,0.0,0.0
03/07/2022,00:26:57,0.000,0.0,0.0,0.0
03/07/2022,00:27:57,0.000,0.0,0.0,0.0
03/07/2022,00:28:57,0.000,0.0,0.0,0.0
03/07/2022,00:29:57,0.001,0.0,0.0,0.0
03/07/2022,00:30:56,0.001,0.0,0.0,0.0
03/07/2022,00:31:57,0.000,0.0,0.0,0.0
03/07/2022,00:32:57,0.001,0.0,0.0,0.0
03/07/2022,00:33:57,0.000,0.0,0.0,0.0
03/07/2022,00:34:57,0.000,0.0,0.0,0.0
03/07/2022,00:35:56,0.001,0.0,0.0,0.0
03/07/2022,00:36:57,-0.001,0.0,0.0,0.0
03/07/2022,00:37:57,0.000,0.0,0.0,0.0
03/07/2022,00:38:56,0.000,0.0,0.0,0.0
03/07/2022,00:39:57,-0.000,0.0,0.0,0.0
03/07/2022,00:40:57,0.001,0.0,0.0,0.0
03/07/2022,00:41:57,0.001,0.0,0.0,0.0
03/07/2022,00:42:57,0.000,0.0,0.0,0.0
03/07/2022,00:43:57,0.000,0.0,0.0,0.0
03/07/2022,00:44:57,0.000,0.0,0.0,0.0
03/07/2022,00:45:57,0.000,0.0,0.0,0.0
03/07/2022,00:46:57,0.000,0.0,0.0,0.0
03/07/2022,00:47:56,0.001,0.0,0.0,0.0
03/07/2022,00:49:05,0.000,0.0,0.0,0.0
03/07/2022,00:49:57,0.000,0.0,0.0,0.0
03/07/2022,00:50:57,0.000,0.0,0.0,0.0
03/07/2022,00:51:57,0.000,0.0,0.0,0.0
03/07/2022,00:52:57,0.001,0.0,0.0,0.0
03/07/2022,00:53:57,-0.001,0.0,0.0,0.0
03/07/2022,00:54:57,0.000,0.0,0.0,0.0
03/07/2022,00:55:57,0.002,0.0,0.0,0.0
03/07/2022,00:56:57,0.001,0.0,0.0,0.0
03/07/2022,00:57:57,0.001,0.0,0.0,0.0
03/07/2022,00:59:06,-0.000,0.0,0.0,0.0
03/07/2022,01:00:57,0.000,0.0,0.0,0.0
03/07/2022,01:01:57,0.000,0.0,0.0,0.0
03/07/2022,01:02:57,0.000,0.0,0.0,0.0
03/07/2022,01:03:57,-0.000,0.0,0.0,0.0
03/07/2022,01:05:14,0.000,0.0,0.0,0.0
03/07/2022,01:06:57,0.000,0.0,0.0,0.0
03/07/2022,01:07:57,0.001,0.0,0.0,0.0
03/07/2022,01:08:57,0.002,0.0,0.0,0.0
03/07/2022,01:09:57,0.001,0.0,0.0,0.0
03/07/2022,01:10:57,0.001,0.0,0.0,0.0
03/07/2022,01:11:57,-0.000,0.0,0.0,0.0
03/07/2022,01:12:57,0.000,0.0,0.0,0.0
03/07/2022,01:13:57,0.001,0.0,0.0,0.0
03/07/2022,01:14:57,0.001,0.0,0.0,0.0
03/07/2022,01:15:57,0.000,0.0,0.0,0.0
03/07/2022,01:16:57,0.000,0.0,0.0,0.0
03/07/2022,01:17:57,0.001,0.0,0.0,0.0
03/07/2022,01:18:57,0.000,0.0,0.0,0.0
03/07/2022,01:19:57,0.001,0.0,0.0,0.0
03/07/2022,01:20:57,0.001,0.0,0.0,0.0
03/07/2022,01:21:57,0.001,0.0,0.0,0.0
03/07/2022,01:22:57,0.000,0.0,0.0,0.0
03/07/2022,01:23:57,0.000,0.0,0.0,0.0
03/07/2022,01:25:05,-0.000,0.0,0.0,0.0
03/07/2022,01:25:57,0.000,0.0,0.0,0.0
03/07/2022,01:26:57,0.000,0.0,0.0,0.0
03/07/2022,01:27:57,0.000,0.0,0.0,0.0
03/07/2022,01:28:56,0.001,0.0,0.0,0.0
03/07/2022,01:29:56,0.001,0.0,0.0,0.0
03/07/2022,01:30:57,0.001,0.0,0.0,0.0
03/07/2022,01:31:57,0.000,0.0,0.0,0.0
03/07/2022,01:32:57,0.000,0.0,0.0,0.0
03/07/2022,01:33:57,0.000,0.0,0.0,0.0
03/07/2022,01:35:05,0.000,0.0,0.0,0.0
03/07/2022,01:35:57,0.000,0.0,0.0,0.0
03/07/2022,01:36:44,0.000,0.0,0.0,0.0
03/07/2022,01:37:57,0.000,0.0,0.0,0.0
03/07/2022,01:38:57,0.000,0.0,0.0,0.0
03/07/2022,01:39:56,0.001,0.0,0.0,0.0
03/07/2022,01:41:05,0.000,0.0,0.0,0.0
03/07/2022,01:41:57,0.001,0.0,0.0,0.0
03/07/2022,01:42:57,0.000,0.0,0.0,0.0
03/07/2022,01:43:57,0.001,0.0,0.0,0.0
03/07/2022,01:44:57,0.000,0.0,0.0,0.0
03/07/2022,01:45:57,0.001,0.0,0.0,0.0
03/07/2022,01:46:57,0.000,0.0,0.0,0.0
03/07/2022,01:47:57,-0.001,0.0,0.0,0.0
03/07/2022,01:48:57,0.001,0.0,0.0,0.0
03/07/2022,01:49:57,0.001,0.0,0.0,0.0
03/07/2022,01:51:05,0.000,0.0,0.0,0.0
03/07/2022,01:51:57,0.000,0.0,0.0,0.0
03/07/2022,01:52:57,0.001,0.0,0.0,0.0
03/07/2022,01:53:57,0.001,0.0,0.0,0.0
03/07/2022,01:54:57,0.001,0.0,0.0,0.0
03/07/2022,01:55:57,0.000,0.0,0.0,0.0
03/07/2022,01:56:57,0.000,0.0,0.0,0.0
03/07/2022,01:57:57,0.000,0.0,0.0,0.0
03/07/2022,01:58:57,0.001,0.0,0.0,0.0
03/07/2022,01:59:56,0.001,0.0,0.0,0.0
03/07/2022,02:00:57,-0.001,0.0,0.0,0.0
03/07/2022,02:01:57,-0.000,0.0,0.0,0.0
03/07/2022,02:02:57,-0.000,0.0,0.0,0.0
03/07/2022,02:04:05,0.001,0.0,0.0,0.0
03/07/2022,02:04:57,0.001,0.0,0.0,0.0
03/07/2022,02:05:57,0.001,0.0,0.0,0.0
03/07/2022,02:06:57,0.001,0.0,0.0,0.0
03/07/2022,02:07:57,0.001,0.0,0.0,0.0
03/07/2022,02:08:57,0.001,0.0,0.0,0.0
03/07/2022,02:09:57,0.001,0.0,0.0,0.0
03/07/2022,02:10:57,-0.000,0.0,0.0,0.0
03/07/2022,02:11:57,-0.000,0.0,0.0,0.0
03/07/2022,02:12:58,0.001,0.0,0.0,0.0
03/07/2022,02:13:57,-0.000,0.0,0.0,0.0
03/07/2022,02:14:57,0.001,0.0,0.0,0.0
03/07/2022,02:15:57,0.001,0.0,0.0,0.0
03/07/2022,02:16:57,-0.001,0.0,0.0,0.0
03/07/2022,02:17:57,0.001,0.0,0.0,0.0
03/07/2022,02:18:57,-0.000,0.0,0.0,0.0
03/07/2022,02:20:05,0.000,0.0,0.0,0.0
03/07/2022,02:21:05,-0.000,0.0,0.0,0.0
03/07/2022,02:21:57,0.001,0.0,0.0,0.0
03/07/2022,02:23:12,0.001,0.0,0.0,0.0
03/07/2022,02:24:57,-0.001,0.0,0.0,0.0
03/07/2022,02:25:58,0.001,0.0,0.0,0.0
03/07/2022,02:26:57,0.000,0.0,0.0,0.0
03/07/2022,02:27:57,0.002,0.0,0.0,0.0
03/07/2022,02:28:57,0.001,0.0,0.0,0.0
03/07/2022,02:29:57,0.002,0.0,0.0,0.0
03/07/2022,02:30:57,0.001,0.0,0.0,0.0
03/07/2022,02:31:57,0.001,0.0,0.0,0.0
03/07/2022,02:32:57,0.001,0.0,0.0,0.0
03/07/2022,02:33:57,0.000,0.0,0.0,0.0
03/07/2022,02:34:57,0.000,0.0,0.0,0.0
03/07/2022,02:35:57,0.000,0.0,0.0,0.0
03/07/2022,02:36:57,0.001,0.0,0.0,0.0
03/07/2022,02:37:57,0.000,0.0,0.0,0.0
03/07/2022,02:38:57,0.001,0.0,0.0,0.0
03/07/2022,02:39:57,0.001,0.0,0.0,0.0
03/07/2022,02:41:05,0.001,0.0,0.0,0.0
03/07/2022,02:41:57,0.001,0.0,0.0,0.0
03/07/2022,02:42:57,0.000,0.0,0.0,0.0
03/07/2022,02:44:05,0.001,0.0,0.0,0.0
03/07/2022,02:44:57,0.000,0.0,0.0,0.0
03/07/2022,02:45:57,0.001,0.0,0.0,0.0
03/07/2022,02:47:05,0.001,0.0,0.0,0.0
03/07/2022,02:47:57,0.001,0.0,0.0,0.0
03/07/2022,02:48:57,-0.001,0.0,0.0,0.0
03/07/2022,02:49:57,0.001,0.0,0.0,0.0
03/07/2022,02:50:57,0.001,0.0,0.0,0.0
03/07/2022,02:51:57,0.001,0.0,0.0,0.0
03/07/2022,02:52:57,0.000,0.0,0.0,0.0
03/07/2022,02:54:05,0.001,0.0,0.0,0.0
03/07/2022,02:54:57,0.001,0.0,0.0,0.0
03/07/2022,02:55:57,0.001,0.0,0.0,0.0
03/07/2022,02:57:06,0.001,0.0,0.0,0.0
03/07/2022,02:57:57,0.001,0.0,0.0,0.0
03/07/2022,02:58:57,0.001,0.0,0.0,0.0
03/07/2022,02:59:57,0.001,0.0,0.0,0.0
03/07/2022,03:00:57,-0.001,0.0,0.0,0.0
03/07/2022,03:02:09,0.000,0.0,0.0,0.0
03/07/2022,03:03:58,0.000,0.0,0.0,0.0
03/07/2022,03:04:57,0.001,0.0,0.0,0.0
03/07/2022,03:05:57,0.001,0.0,0.0,0.0
03/07/2022,03:07:06,0.001,0.0,0.0,0.0
03/07/2022,03:07:56,0.001,0.0,0.0,0.0
03/07/2022,03:08:57,0.001,0.0,0.0,0.0
03/07/2022,03:09:57,0.001,0.0,0.0,0.0
03/07/2022,03:10:57,0.001,0.0,0.0,0.0
03/07/2022,03:11:57,0.001,0.0,0.0,0.0
03/07/2022,03:12:57,0.000,0.0,0.0,0.0
03/07/2022,03:13:57,0.000,0.0,0.0,0.0
03/07/2022,03:14:57,0.001,0.0,0.0,0.0
03/07/2022,03:15:57,0.001,0.0,0.0,0.0
03/07/2022,03:16:57,0.001,0.0,0.0,0.0
03/07/2022,03:17:57,0.001,0.0,0.0,0.0
03/07/2022,03:18:57,0.001,0.0,0.0,0.0
03/07/2022,03:19:57,0.002,0.0,0.0,0.0
03/07/2022,03:20:57,0.001,0.0,0.0,0.0
03/07/2022,03:21:57,0.000,0.0,0.0,0.0
03/07/2022,03:22:57,0.000,0.0,0.0,0.0
03/07/2022,03:23:57,0.000,0.0,0.0,0.0
03/07/2022,03:24:57,-0.000,0.0,0.0,0.0
03/07/2022,03:25:57,0.001,0.0,0.0,0.0
03/07/2022,03:26:57,-0.000,0.0,0.0,0.0
03/07/2022,03:27:57,0.001,0.0,0.0,0.0
03/07/2022,03:28:57,0.000,0.0,0.0,0.0
03/07/2022,03:29:57,0.000,0.0,0.0,0.0
03/07/2022,03:30:57,0.001,0.0,0.0,0.0
03/07/2022,03:31:57,0.000,0.0,0.0,0.0
03/07/2022,03:32:57,0.001,0.0,0.0,0.0
03/07/2022,03:34:05,0.001,0.0,0.0,0.0
03/07/2022,03:34:57,-0.000,0.0,0.0,0.0
03/07/2022,03:35:57,0.001,0.0,0.0,0.0
03/07/2022,03:36:57,-0.000,0.0,0.0,0.0
03/07/2022,03:37:57,0.000,0.0,0.0,0.0
03/07/2022,03:39:04,0.001,0.0,0.0,0.0
03/07/2022,03:39:57,0.001,0.0,0.0,0.0
03/07/2022,03:40:57,0.000,0.0,0.0,0.0
03/07/2022,03:41:57,0.001,0.0,0.0,0.0
03/07/2022,03:42:57,0.001,0.0,0.0,0.0
03/07/2022,03:44:05,0.001,0.0,0.0,0.0
03/07/2022,03:44:57,-0.000,0.0,0.0,0.0
03/07/2022,03:45:57,0.001,0.0,0.0,0.0
03/07/2022,03:47:05,-0.000,0.0,0.0,0.0
03/07/2022,03:47:57,-0.000,0.0,0.0,0.0
03/07/2022,03:48:57,0.000,0.0,0.0,0.0
03/07/2022,03:49:58,0.000,0.0,0.0,0.0
03/07/2022,03:50:57,0.001,0.0,0.0,0.0
03/07/2022,03:51:57,0.001,0.0,0.0,0.0
03/07/2022,03:52:57,0.002,0.0,0.0,0.0
03/07/2022,03:53:57,0.001,0.0,0.0,0.0
03/07/2022,03:54:57,0.001,0.0,0.0,0.0
03/07/2022,03:55:49,0.002,0.0,0.0,0.0
03/07/2022,03:56:57,0.001,0.0,0.0,0.0
03/07/2022,03:57:57,0.002,0.0,0.0,0.0
03/07/2022,03:58:57,0.002,0.0,0.0,0.0
03/07/2022,03:59:57,0.002,0.0,0.0,0.0
03/07/2022,04:00:57,0.002,0.0,0.0,0.0
03/07/2022,04:01:57,0.001,0.0,0.0,0.0
03/07/2022,04:02:57,0.002,0.0,0.0,0.0
03/07/2022,04:04:06,0.002,0.0,0.0,0.0
03/07/2022,04:04:52,0.003,0.0,0.0,0.0
03/07/2022,04:05:57,0.003,0.0,0.0,0.0
03/07/2022,04:06:57,0.004,0.0,0.0,0.0
03/07/2022,04:07:57,0.003,0.0,0.0,0.0
03/07/2022,04:08:57,0.003,0.0,0.0,0.0
03/07/2022,04:10:05,0.003,0.0,0.0,0.0
03/07/2022,04:10:57,0.003,0.0,0.0,0.0
03/07/2022,04:11:57,0.004,0.0,0.0,0.0
03/07/2022,04:12:58,0.004,0.0,0.0,0.0
03/07/2022,04:14:05,0.003,0.0,0.0,0.0
03/07/2022,04:14:57,0.004,0.0,0.0,0.0
03/07/2022,04:15:57,0.006,0.0,0.0,0.0
03/07/2022,04:16:57,0.004,0.0,0.0,0.0
03/07/2022,04:17:57,0.005,0.0,0.0,0.0
03/07/2022,04:18:57,0.005,0.0,0.0,0.0
03/07/2022,04:19:57,0.006,0.0,0.0,0.0
03/07/2022,04:20:58,0.006,0.0,0.0,0.0
03/07/2022,04:21:57,0.006,0.0,0.0,0.0
03/07/2022,04:22:57,0.007,0.0,0.0,0.0
03/07/2022,04:23:57,0.007,0.0,0.0,0.0
03/07/2022,04:24:57,0.007,0.0,0.0,0.0
03/07/2022,04:25:57,0.007,0.0,0.001,0.001
03/07/2022,04:27:06,0.007,0.0,0.001,0.0
03/07/2022,04:27:57,0.008,0.0,0.001,0.0
03/07/2022,04:28:57,0.008,0.0,0.001,0.0
03/07/2022,04:29:57,0.009,0.0,0.001,0.0
03/07/2022,04:30:57,0.009,0.0,0.001,0.0
03/07/2022,04:31:57,0.009,0.0,0.001,0.0
03/07/2022,04:32:57,0.010,0.0,0.002,0.001
03/07/2022,04:33:57,0.010,0.0,0.002,0.0
03/07/2022,04:34:58,0.010,0.0,0.002,0.0
03/07/2022,04:35:58,0.011,0.0,0.002,0.0
03/07/2022,04:37:05,0.011,0.0,0.002,0.0
03/07/2022,04:37:57,0.011,0.0,0.002,0.0
03/07/2022,04:38:57,0.013,0.0,0.003,0.001
03/07/2022,04:39:58,0.012,0.0,0.003,0.0
03/07/2022,04:40:57,0.013,0.0,0.003,0.0
03/07/2022,04:41:57,0.013,0.0,0.003,0.0
03/07/2022,04:42:58,0.013,0.0,0.003,0.0
03/07/2022,04:43:58,0.014,0.0,0.004,0.001
03/07/2022,04:44:57,0.015,0.0,0.004,0.0
03/07/2022,04:45:57,0.015,0.0,0.004,0.0
03/07/2022,04:46:57,0.015,0.0,0.004,0.0
03/07/2022,04:47:57,0.016,0.0,0.005,0.001
03/07/2022,04:48:58,0.016,0.0,0.005,0.0
03/07/2022,04:49:57,0.016,0.0,0.005,0.0
03/07/2022,04:50:57,0.018,0.0,0.006,0.001
03/07/2022,04:51:58,0.018,0.0,0.006,0.0
03/07/2022,04:52:57,0.019,0.0,0.006,0.0
03/07/2022,04:53:58,0.019,0.0,0.006,0.0
03/07/2022,04:54:57,0.019,0.0,0.007,0.001
03/07/2022,04:55:57,0.021,0.0,0.007,0.0
03/07/2022,04:56:59,0.021,0.0,0.007,0.0
03/07/2022,04:57:57,0.021,0.0,0.008,0.001
03/07/2022,04:58:57,0.023,0.0,0.008,0.0
03/07/2022,04:59:58,0.023,0.0,0.009,0.001
03/07/2022,05:00:57,0.023,0.0,0.009,0.0
03/07/2022,05:01:57,0.025,0.0,0.009,0.0
03/07/2022,05:02:57,0.026,0.0,0.01,0.001
03/07/2022,05:04:06,0.025,0.0,0.01,0.0
03/07/2022,05:04:57,0.027,0.0,0.011,0.001
03/07/2022,05:05:58,0.027,0.0,0.011,0.0
03/07/2022,05:06:57,0.027,0.0,0.011,0.0
03/07/2022,05:07:57,0.028,0.0,0.012,0.001
03/07/2022,05:08:58,0.029,0.0,0.012,0.0
03/07/2022,05:09:57,0.030,0.0,0.013,0.001
03/07/2022,05:10:57,0.031,0.0,0.013,0.0
03/07/2022,05:11:57,0.033,0.0,0.014,0.001
03/07/2022,05:12:57,0.031,0.0,0.014,0.0
03/07/2022,05:14:06,0.033,0.0,0.015,0.001
03/07/2022,05:14:57,0.034,0.0,0.016,0.001
03/07/2022,05:15:57,0.035,0.0,0.016,0.0
03/07/2022,05:17:06,0.037,0.0,0.017,0.001
03/07/2022,05:17:57,0.037,0.0,0.017,0.0
03/07/2022,05:18:58,0.039,0.0,0.018,0.001
03/07/2022,05:19:57,0.040,0.0,0.019,0.001
03/07/2022,05:20:58,0.040,0.0,0.019,0.0
03/07/2022,05:21:57,0.042,0.0,0.02,0.001
03/07/2022,05:22:57,0.043,0.0,0.021,0.001
03/07/2022,05:23:58,0.044,0.0,0.021,0.0
03/07/2022,05:24:58,0.046,0.0,0.022,0.001
03/07/2022,05:25:57,0.047,0.0,0.023,0.001
03/07/2022,05:27:05,0.048,0.0,0.024,0.001
03/07/2022,05:28:58,0.050,0.0,0.025,0.001
03/07/2022,05:29:58,0.051,0.0,0.026,0.001
03/07/2022,05:30:57,0.052,0.0,0.027,0.001
03/07/2022,05:31:58,0.053,0.0,0.028,0.001
03/07/2022,05:32:57,0.055,0.0,0.029,0.001
03/07/2022,05:34:06,0.056,0.0,0.03,0.001
03/07/2022,05:34:57,0.056,0.0,0.031,0.001
03/07/2022,05:35:57,0.059,0.0,0.032,0.001
03/07/2022,05:36:58,0.058,0.0,0.033,0.001
03/07/2022,05:37:57,0.059,0.0,0.034,0.001
03/07/2022,05:38:58,0.061,0.0,0.035,0.001
03/07/2022,05:39:58,0.062,0.0,0.036,0.001
03/07/2022,05:40:57,0.064,0.0,0.037,0.001
03/07/2022,05:41:58,0.064,0.0,0.038,0.001
03/07/2022,05:42:57,0.065,0.0,0.039,0.001
03/07/2022,05:43:57,0.067,0.0,0.04,0.001
03/07/2022,05:44:59,0.068,0.0,0.041,0.001
03/07/2022,05:45:57,0.069,0.0,0.042,0.001
03/07/2022,05:46:57,0.071,0.0,0.043,0.001
03/07/2022,05:48:05,0.073,0.0,0.045,0.002
03/07/2022,05:48:57,0.074,0.0,0.046,0.001
03/07/2022,05:49:58,0.074,0.0,0.047,0.001
03/07/2022,05:50:57,0.077,0.0,0.048,0.001
03/07/2022,05:51:57,0.079,0.0,0.049,0.001
03/07/2022,05:52:57,0.079,0.0,0.051,0.002
03/07/2022,05:53:57,0.079,0.0,0.052,0.001
03/07/2022,05:54:57,0.081,0.0,0.054,0.002
03/07/2022,05:55:57,0.082,0.0,0.055,0.001
03/07/2022,05:56:57,0.085,0.0,0.056,0.001
03/07/2022,05:57:57,0.087,0.0,0.058,0.002
03/07/2022,05:58:58,0.089,0.0,0.059,0.001
03/07/2022,05:59:57,0.092,0.0,0.061,0.002
03/07/2022,06:01:06,0.094,0.0,0.062,0.001
03/07/2022,06:01:57,0.097,0.0,0.064,0.002
03/07/2022,06:02:57,0.097,0.0,0.065,0.001
03/07/2022,06:04:05,0.100,0.0,0.067,0.002
03/07/2022,06:04:59,0.103,0.0,0.069,0.002
03/07/2022,06:05:57,0.105,0.0,0.071,0.002
03/07/2022,06:06:57,0.106,0.0,0.072,0.001
03/07/2022,06:07:57,0.107,0.0,0.074,0.002
03/07/2022,06:08:57,0.108,0.0,0.076,0.002
03/07/2022,06:09:57,0.107,0.0,0.078,0.002
03/07/2022,06:11:21,0.111,0.0,0.08,0.002
03/07/2022,06:12:58,0.115,0.0,0.083,0.003
03/07/2022,06:13:57,0.117,0.0,0.085,0.002
03/07/2022,06:14:57,0.120,0.0,0.087,0.002
03/07/2022,06:15:57,0.122,0.0,0.089,0.002
03/07/2022,06:17:06,0.125,0.0,0.092,0.003
03/07/2022,06:18:05,0.130,0.0,0.094,0.002
03/07/2022,06:18:57,0.136,0.0,0.096,0.002
03/07/2022,06:19:57,0.137,0.0,0.098,0.002
03/07/2022,06:20:57,0.141,0.0,0.1,0.002
03/07/2022,06:21:58,0.139,0.0,0.103,0.003
03/07/2022,06:22:57,0.136,0.0,0.105,0.002
03/07/2022,06:23:57,0.143,0.0,0.107,0.002
03/07/2022,06:24:57,0.148,0.0,0.11,0.003
03/07/2022,06:25:58,0.156,0.0,0.112,0.002
03/07/2022,06:26:57,0.155,0.0,0.115,0.003
03/07/2022,06:27:57,0.161,0.0,0.117,0.002
03/07/2022,06:28:58,0.162,0.0,0.12,0.003
03/07/2022,06:29:57,0.148,0.0,0.123,0.003
03/07/2022,06:30:57,0.169,0.0,0.125,0.002
03/07/2022,06:31:57,0.169,0.0,0.128,0.003
03/07/2022,06:32:57,0.161,0.0,0.131,0.003
03/07/2022,06:33:58,0.164,0.0,0.133,0.002
03/07/2022,06:34:58,0.154,0.0,0.136,0.003
03/07/2022,06:35:57,0.154,0.0,0.139,0.003
03/07/2022,06:36:57,0.145,0.0,0.141,0.002
03/07/2022,06:38:05,0.147,0.0,0.144,0.003
03/07/2022,06:38:57,0.145,0.0,0.146,0.002
03/07/2022,06:39:58,0.148,0.0,0.149,0.003
03/07/2022,06:41:05,0.154,0.0,0.151,0.002
03/07/2022,06:41:58,0.154,0.0,0.154,0.003
03/07/2022,06:42:57,0.158,0.0,0.156,0.002
03/07/2022,06:44:06,0.164,0.0,0.159,0.003
03/07/2022,06:45:58,0.165,0.0,0.164,0.005
03/07/2022,06:46:57,0.166,0.0,0.167,0.003
03/07/2022,06:47:58,0.163,0.0,0.17,0.003
03/07/2022,06:48:57,0.157,0.0,0.172,0.002
03/07/2022,06:49:57,0.150,0.0,0.175,0.003
03/07/2022,06:50:57,0.150,0.0,0.178,0.003
03/07/2022,06:51:57,0.145,0.0,0.18,0.002
03/07/2022,06:52:57,0.143,0.0,0.182,0.002
03/07/2022,06:54:06,0.142,0.0,0.185,0.003
03/07/2022,06:54:58,0.133,0.0,0.187,0.002
03/07/2022,06:55:58,0.131,0.0,0.189,0.002
03/07/2022,06:56:58,0.140,0.0,0.191,0.002
03/07/2022,06:57:57,0.153,0.0,0.194,0.003
03/07/2022,06:58:58,0.163,0.0,0.197,0.003
03/07/2022,06:59:58,0.166,0.0,0.199,0.002
03/07/2022,07:00:58,0.170,0.0,0.202,0.003
03/07/2022,07:01:58,0.174,0.0,0.205,0.003
03/07/2022,07:02:58,0.081,0.0,0.208,0.003
03/07/2022,07:04:05,0.198,0.0,0.211,0.003
03/07/2022,07:04:57,0.206,0.0,0.213,0.002
03/07/2022,07:05:57,0.217,0.0,0.217,0.004
03/07/2022,07:06:57,0.210,0.0,0.221,0.004
03/07/2022,07:07:57,0.207,0.0,0.224,0.003
03/07/2022,07:08:58,0.206,0.0,0.228,0.004
03/07/2022,07:09:57,0.210,0.0,0.231,0.003
03/07/2022,07:10:57,0.215,0.0,0.234,0.003
03/07/2022,07:11:57,0.222,1.0,0.238,0.004
03/07/2022,07:12:57,0.224,1.0,0.242,0.004
03/07/2022,07:13:58,0.215,0.0,0.246,0.004
03/07/2022,07:14:57,0.198,0.0,0.249,0.003
03/07/2022,07:15:58,0.182,0.0,0.252,0.003
03/07/2022,07:16:58,0.172,0.0,0.255,0.003
03/07/2022,07:17:57,0.168,0.0,0.258,0.003
03/07/2022,07:18:57,0.171,0.0,0.261,0.003
03/07/2022,07:19:57,0.174,0.0,0.264,0.003
03/07/2022,07:20:58,0.177,0.0,0.267,0.003
03/07/2022,07:21:57,0.171,0.0,0.269,0.002
03/07/2022,07:22:58,0.167,0.0,0.272,0.003
03/07/2022,07:23:57,0.163,0.0,0.275,0.003
03/07/2022,07:24:58,0.154,0.0,0.278,0.003
03/07/2022,07:25:58,0.150,0.0,0.28,0.002
03/07/2022,07:26:57,0.150,0.0,0.283,0.003
03/07/2022,07:28:06,0.149,0.0,0.286,0.003
03/07/2022,07:28:57,0.158,0.0,0.288,0.002
03/07/2022,07:29:57,0.169,0.0,0.29,0.002
03/07/2022,07:30:57,0.192,0.0,0.293,0.003
03/07/2022,07:32:14,0.203,0.0,0.298,0.005
03/07/2022,07:33:58,0.227,1.0,0.304,0.006
03/07/2022,07:34:57,0.236,1.0,0.308,0.004
03/07/2022,07:35:58,0.235,1.0,0.312,0.004
03/07/2022,07:36:57,0.233,1.0,0.315,0.003
03/07/2022,07:38:06,0.241,1.0,0.32,0.005
03/07/2022,07:38:57,0.247,1.0,0.324,0.004
03/07/2022,07:39:58,0.256,1.0,0.328,0.004
03/07/2022,07:40:58,0.270,1.0,0.332,0.004
03/07/2022,07:41:57,0.268,1.0,0.337,0.005
03/07/2022,07:42:58,0.257,1.0,0.341,0.004
03/07/2022,07:43:58,0.254,1.0,0.345,0.004
03/07/2022,07:44:57,0.254,1.0,0.35,0.005
03/07/2022,07:45:57,0.246,1.0,0.354,0.004
03/07/2022,07:46:57,0.241,1.0,0.358,0.004
03/07/2022,07:48:06,0.251,1.0,0.362,0.004
03/07/2022,07:49:59,0.259,1.0,0.37,0.008
03/07/2022,07:51:07,0.273,1.0,0.375,0.005
03/07/2022,07:51:57,0.296,1.0,0.379,0.004
03/07/2022,07:52:58,0.315,1.0,0.385,0.006
03/07/2022,07:53:57,0.315,1.0,0.39,0.005
03/07/2022,07:54:57,0.305,1.0,0.395,0.005
03/07/2022,07:55:57,0.301,1.0,0.4,0.005
03/07/2022,07:56:57,0.307,1.0,0.405,0.005
03/07/2022,07:58:06,0.321,1.0,0.411,0.006
03/07/2022,07:58:57,0.323,1.0,0.415,0.004
03/07/2022,07:59:58,0.325,1.0,0.421,0.006
03/07/2022,08:00:57,0.320,1.0,0.426,0.005
03/07/2022,08:01:57,0.323,1.0,0.432,0.006
03/07/2022,08:02:58,0.347,1.0,0.437,0.005
03/07/2022,08:03:58,0.377,1.0,0.443,0.006
03/07/2022,08:04:59,0.411,1.0,0.45,0.007
03/07/2022,08:05:57,0.431,1.0,0.457,0.007
03/07/2022,08:06:57,0.435,1.0,0.464,0.007
03/07/2022,08:08:06,0.457,1.0,0.473,0.009
03/07/2022,08:08:57,0.484,1.0,0.48,0.007
03/07/2022,08:09:58,0.511,1.0,0.488,0.008
03/07/2022,08:10:57,0.608,1.0,0.497,0.009
03/07/2022,08:11:57,0.656,2.0,0.508,0.011
03/07/2022,08:12:58,0.668,2.0,0.519,0.011
03/07/2022,08:13:57,0.678,2.0,0.531,0.012
03/07/2022,08:15:23,0.707,2.0,0.547,0.016
03/07/2022,08:16:57,0.680,2.0,0.565,0.018
03/07/2022,08:17:58,0.705,2.0,0.577,0.012
03/07/2022,08:18:58,0.663,2.0,0.588,0.011
03/07/2022,08:19:57,0.605,1.0,0.598,0.01
03/07/2022,08:20:58,0.670,2.0,0.609,0.011
03/07/2022,08:21:57,0.647,1.0,0.62,0.011
03/07/2022,08:22:57,0.647,1.0,0.631,0.011
03/07/2022,08:23:58,0.666,2.0,0.642,0.011
03/07/2022,08:24:57,0.750,2.0,0.654,0.012
03/07/2022,08:25:57,0.655,2.0,0.666,0.012
03/07/2022,08:26:57,0.601,1.0,0.676,0.01
03/07/2022,08:27:58,0.683,2.0,0.687,0.011
03/07/2022,08:28:58,0.686,2.0,0.698,0.011
03/07/2022,08:29:58,0.694,2.0,0.711,0.013
03/07/2022,08:30:58,0.774,2.0,0.723,0.012
03/07/2022,08:31:58,0.754,2.0,0.736,0.013
03/07/2022,08:32:58,0.694,2.0,0.748,0.012
03/07/2022,08:33:58,0.676,2.0,0.76,0.012
03/07/2022,08:34:58,0.594,1.0,0.77,0.01
03/07/2022,08:35:57,0.712,2.0,0.781,0.011
03/07/2022,08:36:58,0.612,1.0,0.791,0.01
03/07/2022,08:37:57,0.656,2.0,0.803,0.012
03/07/2022,08:38:58,0.771,2.0,0.815,0.012
03/07/2022,08:39:58,0.754,2.0,0.828,0.013
03/07/2022,08:40:57,0.740,2.0,0.84,0.012
03/07/2022,08:42:05,0.727,2.0,0.854,0.014
03/07/2022,08:42:57,0.684,2.0,0.864,0.01
03/07/2022,08:43:58,0.701,2.0,0.876,0.012
03/07/2022,08:44:57,0.719,2.0,0.888,0.012
03/07/2022,08:45:58,0.725,2.0,0.9,0.012
03/07/2022,08:46:58,0.707,2.0,0.912,0.012
03/07/2022,08:47:57,0.698,2.0,0.923,0.011
03/07/2022,08:48:58,0.679,2.0,0.935,0.012
03/07/2022,08:49:57,0.681,2.0,0.946,0.011
03/07/2022,08:50:57,0.663,2.0,0.957,0.011
03/07/2022,08:51:57,0.671,2.0,0.968,0.011
03/07/2022,08:52:57,0.662,2.0,0.979,0.011
03/07/2022,08:53:57,0.619,1.0,0.99,0.011
03/07/2022,08:54:57,0.586,1.0,1.0,0.01
03/07/2022,08:55:57,0.523,1.0,1.009,0.009
03/07/2022,08:56:57,0.517,1.0,1.018,0.009
03/07/2022,08:58:06,0.516,1.0,1.027,0.009
03/07/2022,08:59:05,0.516,1.0,1.036,0.009
03/07/2022,08:59:57,0.511,1.0,1.043,0.007
03/07/2022,09:00:57,0.497,1.0,1.052,0.009
03/07/2022,09:01:57,0.482,1.0,1.06,0.008
03/07/2022,09:02:58,0.485,1.0,1.068,0.008
03/07/2022,09:03:58,0.500,1.0,1.076,0.008
03/07/2022,09:04:57,0.533,1.0,1.085,0.009
03/07/2022,09:05:57,0.572,1.0,1.094,0.009
03/07/2022,09:06:57,0.620,1.0,1.104,0.01
03/07/2022,09:08:06,0.697,2.0,1.116,0.012
03/07/2022,09:08:57,0.991,2.0,1.129,0.013
03/07/2022,09:09:58,0.810,2.0,1.144,0.015
03/07/2022,09:10:57,0.959,2.0,1.16,0.016
03/07/2022,09:11:58,1.094,3.0,1.177,0.017
03/07/2022,09:12:57,1.143,3.0,1.195,0.018
03/07/2022,09:13:58,1.153,3.0,1.214,0.019
03/07/2022,09:14:57,1.227,3.0,1.234,0.02
03/07/2022,09:15:58,1.246,3.0,1.255,0.021
03/07/2022,09:16:57,1.258,3.0,1.276,0.021
03/07/2022,09:18:05,1.282,3.0,1.3,0.024
03/07/2022,09:18:58,1.029,2.0,1.317,0.017
03/07/2022,09:19:57,0.808,2.0,1.333,0.016
03/07/2022,09:20:58,0.864,2.0,1.352,0.019
03/07/2022,09:21:58,1.032,2.0,1.367,0.015
03/07/2022,09:22:58,0.775,2.0,1.381,0.014
03/07/2022,09:24:05,1.090,3.0,1.4,0.019
03/07/2022,09:24:57,0.843,2.0,1.413,0.013
03/07/2022,09:25:57,1.328,3.0,1.43,0.017
03/07/2022,09:26:58,1.309,3.0,1.452,0.022
03/07/2022,09:27:58,1.316,3.0,1.473,0.021
03/07/2022,09:28:57,1.326,3.0,1.495,0.022
03/07/2022,09:29:58,1.332,3.0,1.518,0.023
03/07/2022,09:30:57,1.345,3.0,1.54,0.022
03/07/2022,09:31:58,1.354,3.0,1.562,0.022
03/07/2022,09:32:57,1.357,3.0,1.585,0.023
03/07/2022,09:34:06,1.366,3.0,1.611,0.026
03/07/2022,09:34:57,1.379,3.0,1.631,0.02
03/07/2022,09:35:58,1.385,3.0,1.654,0.023
03/07/2022,09:37:06,1.387,3.0,1.68,0.026
03/07/2022,09:38:58,1.400,3.0,1.723,0.043
03/07/2022,09:39:58,1.408,3.0,1.747,0.024
03/07/2022,09:40:58,1.423,3.0,1.77,0.023
03/07/2022,09:42:00,1.444,3.0,1.795,0.025
03/07/2022,09:42:58,1.453,3.0,1.818,0.023
03/07/2022,09:43:57,1.458,3.0,1.843,0.025
03/07/2022,09:45:06,0.880,2.0,1.869,0.026
03/07/2022,09:45:58,0.881,2.0,1.881,0.012
03/07/2022,09:47:06,1.099,3.0,1.899,0.018
03/07/2022,09:47:58,1.316,3.0,1.918,0.019
03/07/2022,09:48:58,1.112,3.0,1.937,0.019
03/07/2022,09:49:58,0.935,2.0,1.955,0.018
03/07/2022,09:50:57,1.491,3.0,1.972,0.017
03/07/2022,09:51:57,1.499,3.0,1.997,0.025
03/07/2022,09:52:58,1.515,3.0,2.022,0.025
03/07/2022,09:53:57,1.516,3.0,2.047,0.025
03/07/2022,09:54:58,1.533,4.0,2.072,0.025
03/07/2022,09:55:57,1.542,4.0,2.098,0.026
03/07/2022,09:57:06,1.549,4.0,2.127,0.029
03/07/2022,09:57:57,1.560,4.0,2.15,0.023
03/07/2022,09:58:58,1.564,4.0,2.176,0.026
03/07/2022,10:00:06,1.579,4.0,2.205,0.029
03/07/2022,10:00:58,1.588,4.0,2.228,0.023
03/07/2022,10:01:57,1.596,4.0,2.255,0.027
03/07/2022,10:03:06,1.609,4.0,2.285,0.03
03/07/2022,10:03:58,1.613,4.0,2.308,0.023
03/07/2022,10:04:58,1.606,4.0,2.335,0.027
03/07/2022,10:05:58,1.620,4.0,2.362,0.027
03/07/2022,10:06:57,1.615,4.0,2.389,0.027
03/07/2022,10:07:58,1.633,4.0,2.416,0.027
03/07/2022,10:08:58,1.645,4.0,2.443,0.027
03/07/2022,10:09:58,1.651,4.0,2.471,0.028
03/07/2022,10:11:06,1.659,4.0,2.502,0.031
03/07/2022,10:11:57,1.677,4.0,2.526,0.024
03/07/2022,10:13:08,1.685,4.0,2.559,0.033
03/07/2022,10:13:56,1.692,4.0,2.582,0.023
03/07/2022,10:14:58,1.688,4.0,2.611,0.029
03/07/2022,10:15:59,1.706,4.0,2.64,0.029